{"data":{"norad_id":63656,"epoch":"2026-09-20T12:26:13.243776Z","epoch_age_seconds":151058,"freshness":"FRESH","line1":"1 63656U 25083Y   26263.51820884  .00011559  00000+0  42874-3 0  9997","line2":"2 63656  42.9972 344.8885 0001609 279.1248  80.9422 15.27591464 79892","mean_motion":15.27591464,"eccentricity":0.0001609,"inclination_deg":42.9972,"raan_deg":344.8885,"arg_perigee_deg":279.1248,"mean_anomaly_deg":80.9422,"bstar":0.00042874,"rev_number":7989,"period_min":94.26604127712,"perigee_km":481.91080959456,"apogee_km":484.1187282338,"semimajor_km":6861.1517689142,"source":"CELESTRAK","updated_at":"2026-09-21T09:00:35.055492Z"}}